Regional Weather Roundup
Issued by NWS

Home | Current Version | Previous Version | Graphics & Text | Print | Product List | Glossary On
Versions: 1 2 3 4 5 6 7 8 9 10 11 12 13 14 15 16 17 18 19 20 21 22 23 24 25 26 27
000
ASUS45 KCYS 200110
RWRWY

WYOMING REGIONAL WEATHER ROUNDUP
NATIONAL WEATHER SERVICE CHEYENNE WY
700 PM MDT SAT AUG 19 2017

NOTE:  "FAIR" INDICATES FEW OR NO CLOUDS BELOW 12,000 FEET
WITH NO SIGNIFICANT WEATHER AND/OR OBSTRUCTIONS TO VISIBILITY.

WYZ001-200200-
YELLOWSTONE NATIONAL PARK

CITY           SKY/WX    TMP DP  RH WIND       PRES   REMARKS
LK YELLOWSTONE   N/A     67  24  19 VRB5      30.23
W YELLOWSTONE  NOT AVBL

$$
WYZ002>013-054>058-071-098>099-200200-
NORTHERN WYOMING

CITY           SKY/WX    TMP DP  RH WIND       PRES   REMARKS
JACKSON        FAIR      76  27  16 W3        30.13S
CODY           FAIR      82  28  14 W12G20    29.97F
GREYBULL       FAIR      89  28  11 N8        29.86F
WORLAND        FAIR      85  35  16 N13       29.86S
SHERIDAN       FAIR      82  41  23 CALM      29.93F
BUFFALO        CLOUDY    78  31  17 NW8       30.00F HAZE
GILLETTE       FAIR      80  31  16 NE17      29.94F
HULETT         FAIR      77  34  20 NE6       29.98R
NEWCASTLE      FAIR      84  30  14 CALM      29.91S

$$
WYZ014>020-022>026-101>103-200200-
CENTRAL WYOMING

CITY           SKY/WX    TMP DP  RH WIND       PRES   REMARKS
BIG PINEY      FAIR      76  30  18 NW13      30.18S
PINEDALE       FAIR      73  21  14 W15G28    30.19S
DUBOIS         FAIR      73  18  12 NW20      30.15R
LANDER           N/A    N/A N/A N/A MISG      30.01R
RIVERTON       FAIR      85  18   8 NW15      29.98S
CASPER         FAIR      87  18   8 W5        29.97F
DOUGLAS        FAIR      86  35  16 CALM      29.96F

$$
WYZ021-027>030-104>119-200200-
SOUTHERN WYOMING

CITY           SKY/WX    TMP DP  RH WIND       PRES   REMARKS
EVANSTON       FAIR      78  30  17 W17       30.19F
FORT BRIDGER   FAIR      80  24  12 NW14      30.20F
ROCK SPRINGS   FAIR      80  15   8 W18G25    30.14S
RAWLINS        FAIR      80  16   9 W14       30.13F
SARATOGA       FAIR      79  23  12 W8        30.17F
LARAMIE        FAIR      77  22  13 NW13      30.16F
CHEYENNE       FAIR      84  23  10 NW9       30.07S
TORRINGTON     FAIR      89  32  13 NE8       29.89S
PINE BLUFFS    FAIR      82  28  14 NW10      30.00S

$$




USA.gov is the U.S. government's official web portal to all federal, state and local government web resources and services.